Location: Klein M�hlingen
(51.9472°N, 11.7453°E)
Time: 09:13:44
(UTC+00:00)

Resurs 01 Rocket - Pass Details

Date: 09 April 2020
Orbit: 635 x 644 km, 98.0° (Epoch: 02 June)

Event Time Altitude Azimuth Distance (km) Brightness Sun altitude
Exits shadow 19:17:45 11° 154° (SSE) 1,924 3.6 -11.8°
Maximum altitude 19:21:53 69° 72° (ENE) 688 1.6 -12.3°
Drops below altitude 10° 19:26:18 10° 350° (N) 2,041 4.8 -12.9°
Sets 19:28:31 0° 348° (NNW) 2,956 5.8 -13.2°
